Tracking 30106 objects as of 23-Jan-2025
HD Live streaming from Space Station
objects crossing your sky now

STARLINK 1047

Track STARLINK 1047 now!
10-day predictions
STARLINK 1047 is classified as:


NORAD ID: 44752
Int'l Code: 2019-074AR
Perigee: 521.3 km
Apogee: 528.1 km
Inclination: 53.1 °
Period: 95.0 minutes
Semi major axis: 6895 km
RCS: Unknown
Launch date: November 11, 2019
Source: United States (US)
Launch site: AIR FORCE EASTERN TEST RANGE (AFETR)
Your satellite tracking list
Your tracking list is empty




NASA's NSSDC Master Catalog

Two Line Element Set (TLE):
1 44752U 19074AR  25021.88976087  .00038786  00000-0  19922-2 0  9993
2 44752  53.0522 251.6046 0004921 130.7028 229.4393 15.16140636286621
Source of the keplerian elements: AFSPC